Location: Alincthun
(50.7310°N, 1.8022°E)
Time: 10:20:18
(UTC+00:00)

Cosmos 1869 - Pass Details

Date: 17 February 2020
Orbit: 524 x 559 km, 82.5° (Epoch: 29 March)

Event Time Altitude Azimuth Distance (km) Brightness Sun altitude
Rises 05:56:59 0° 205° (SSW) 2,714 6.7 -10.9°
Reaches altitude 10° 05:59:14 10° 212° (SSW) 1,820 5.7 -10.6°
Maximum altitude 06:03:04 44° 285° (WNW) 765 3.6 -10.0°
Drops below altitude 10° 06:06:54 10° 359° (N) 1,815 5.9 -9.4°
Sets 06:09:08 0° 6° (N) 2,706 6.8 -9.0°
